Weather History for Lynchburg, VA

Change the Weather History Date:

Tuesday, April 30, 2013

  Actual Average Record
Temperature  
Mean Temperature 61 °F 59 °F  
Max Temperature 67 °F 72 °F 91 °F (1942)
Min Temperature 54 °F 46 °F 32 °F (2008)
Degree Days  
Heating Degree Days 4 7  
Month to date heating degree days 248 304  
Since 1 July heating degree days 4142 4323  
Cooling Degree Days 0 1  
Month to date cooling degree days 40 16  
Year to date cooling degree days 40 18  
Growing Degree Days 10 (Base 50)    
Moisture  
Dew Point 54 °F    
Average Humidity 82    
Maximum Humidity 100    
Minimum Humidity 63    
Precipitation  
Precipitation T in 0.11 in 0.93 in (2014)
Month to date precipitation 3.38 3.31  
Year to date precipitation 14.32 12.96  
Snow  
Snow 0.00 in - - ()
Month to date snowfall 0.1  
Since 1 July snowfall 13.0  
Snow Depth 0.00 in    
Sea Level Pressure  
Sea Level Pressure 30.14 in    
Wind  
Wind Speed 9 mph (NE)    
Max Wind Speed 17 mph    
Max Gust Speed 22 mph    
Visibility 8 miles    
Events Fog , Rain    
T = Trace of Precipitation, MM = Missing Value Source: NWS Daily Summary

Daily Weather History Graph

Daily Weather History Graph

Search for Another Location

Airport:

Trip Planner

Search our weather history database for the weather conditions in past years. The results will help you decide how hot, cold, wet, or windy it might be!

Date:

Astronomy

Apr. 30, 2013 Rise Set
Actual Time 6:22 AM EDT 8:05 PM EDT
Civil Twilight 5:54 AM EDT 8:33 PM EDT
Nautical Twilight 5:21 AM EDT 9:07 PM EDT
Astronomical Twilight 4:45 AM EDT 9:43 PM EDT
Moon 12:25 AM EDT 10:50 AM EDT
Length of Visible Light 14h 38m
Length of Day
13h 42m
Waning Gibbous, 70% of the Moon is Illuminated
Apr 30
Waning Gibbous
May 2
Last Quarter
May 9
New
May 18
First Quarter
May 25
Full

Hourly Weather History & Observations

Time (EDT) Temp. Dew Point Humidity Pressure Visibility Wind Dir Wind Speed Gust Speed Precip Events Conditions
12:12 AM 53.6 °F 53.6 °F 100% 30.07 in 6.0 mi Calm Calm - N/A   Mostly Cloudy
12:17 AM 53.6 °F 53.6 °F 100% 30.07 in 2.5 mi Calm Calm - N/A   Scattered Clouds
12:23 AM 53.6 °F 53.6 °F 100% 30.07 in 1.2 mi Calm Calm - N/A   Scattered Clouds
12:29 AM 53.6 °F 53.6 °F 100% 30.07 in 2.0 mi Calm Calm - N/A   Scattered Clouds
12:31 AM 53.6 °F 53.6 °F 100% 30.07 in 3.0 mi Calm Calm - N/A   Mostly Cloudy
12:54 AM 54.0 °F 53.1 °F 97% 30.07 in 10.0 mi Calm Calm - N/A   Overcast
1:51 AM 55.4 °F 55.4 °F 100% 30.07 in 10.0 mi NNE 9.2 mph - N/A   Mostly Cloudy
1:54 AM 55.9 °F 55.0 °F 97% 30.06 in 9.0 mi NNE 10.4 mph - N/A   Mostly Cloudy
2:02 AM 55.4 °F 55.4 °F 100% 30.07 in 5.0 mi NNE 8.1 mph - N/A   Mostly Cloudy
2:26 AM 55.4 °F 55.4 °F 100% 30.07 in 1.8 mi NE 10.4 mph - N/A   Overcast
2:30 AM 55.4 °F 55.4 °F 100% 30.07 in 0.8 mi NE 10.4 mph - N/A   Overcast
2:54 AM 55.9 °F 55.9 °F 100% 30.06 in 0.5 mi ENE 5.8 mph - N/A Fog Fog
3:13 AM 55.4 °F 55.4 °F 100% 30.06 in 1.5 mi ENE 5.8 mph - N/A   Overcast
3:20 AM 55.4 °F 55.4 °F 100% 30.06 in 3.0 mi NE 9.2 mph - N/A   Overcast
3:54 AM 55.9 °F 55.0 °F 97% 30.06 in 10.0 mi NE 9.2 mph - N/A   Overcast
4:54 AM 55.9 °F 55.9 °F 100% 30.08 in 10.0 mi East 3.5 mph - N/A   Overcast
5:28 AM 57.2 °F 55.4 °F 94% 30.10 in 10.0 mi ENE 6.9 mph - N/A   Overcast
5:54 AM 57.0 °F 55.0 °F 93% 30.09 in 10.0 mi ENE 4.6 mph - N/A   Overcast
6:28 AM 57.2 °F 55.4 °F 94% 30.12 in 10.0 mi ENE 4.6 mph - N/A   Overcast
6:54 AM 55.9 °F 55.0 °F 97% 30.12 in 10.0 mi NE 6.9 mph - N/A   Overcast
7:05 AM 55.4 °F 55.4 °F 100% 30.14 in 2.5 mi NE 9.2 mph - N/A   Overcast
7:50 AM 55.4 °F 53.6 °F 94% 30.15 in 1.0 mi NNE 6.9 mph - N/A   Overcast
7:54 AM 55.0 °F 54.0 °F 96% 30.15 in 1.0 mi NE 6.9 mph - N/A   Overcast
8:34 AM 55.4 °F 53.6 °F 94% 30.17 in 7.0 mi ENE 6.9 mph - N/A   Overcast
8:54 AM 55.9 °F 53.1 °F 90% 30.17 in 7.0 mi NNE 8.1 mph - N/A   Overcast
9:54 AM 57.9 °F 53.1 °F 84% 30.17 in 10.0 mi NE 9.2 mph - N/A   Overcast
10:54 AM 61.0 °F 54.0 °F 78% 30.17 in 10.0 mi ENE 8.1 mph - N/A   Overcast
11:38 AM 62.6 °F 53.6 °F 72% 30.18 in 10.0 mi NE 6.9 mph - N/A   Overcast
11:54 AM 63.0 °F 53.1 °F 70% 30.17 in 10.0 mi NNE 6.9 mph - N/A   Overcast
12:54 PM 64.0 °F 54.0 °F 70% 30.16 in 10.0 mi NNE 4.6 mph - N/A   Overcast
1:54 PM 64.0 °F 54.0 °F 70% 30.15 in 10.0 mi ENE 6.9 mph - N/A   Overcast
2:54 PM 64.9 °F 54.0 °F 68% 30.15 in 10.0 mi NE 9.2 mph - N/A   Overcast
3:54 PM 66.9 °F 55.0 °F 66% 30.15 in 10.0 mi NE 12.7 mph 16.1 mph N/A   Mostly Cloudy
4:54 PM 66.0 °F 54.0 °F 65% 30.15 in 10.0 mi ENE 13.8 mph 19.6 mph N/A   Mostly Cloudy
5:05 PM 64.4 °F 53.6 °F 68% 30.16 in 10.0 mi ENE 11.5 mph - N/A   Overcast
5:22 PM 66.2 °F 53.6 °F 64% 30.16 in 10.0 mi ENE 12.7 mph 19.6 mph N/A   Mostly Cloudy
5:54 PM 66.0 °F 53.1 °F 63% 30.15 in 10.0 mi NE 15.0 mph 21.9 mph N/A   Partly Cloudy
6:54 PM 64.0 °F 53.1 °F 67% 30.17 in 10.0 mi East 8.1 mph - N/A   Overcast
7:54 PM 62.1 °F 53.1 °F 72% 30.20 in 10.0 mi NE 8.1 mph - N/A   Overcast
8:54 PM 61.0 °F 54.0 °F 78% 30.22 in 10.0 mi ENE 9.2 mph - N/A   Overcast
9:01 PM 60.8 °F 55.4 °F 82% 30.23 in 10.0 mi ENE 8.1 mph - 0.00 in Rain Light Rain
9:09 PM 60.8 °F 55.4 °F 82% 30.23 in 10.0 mi ENE 8.1 mph - 0.00 in   Overcast
9:30 PM 60.8 °F 53.6 °F 77% 30.24 in 10.0 mi NE 9.2 mph - 0.00 in   Overcast
9:54 PM 59.0 °F 54.0 °F 83% 30.24 in 10.0 mi NE 11.5 mph - 0.00 in   Overcast
10:54 PM 57.0 °F 54.0 °F 89% 30.25 in 9.0 mi NE 11.5 mph 19.6 mph N/A   Overcast
11:20 PM 57.2 °F 55.4 °F 94% 30.26 in 4.0 mi NNE 9.2 mph - N/A   Overcast
11:54 PM 57.0 °F 55.0 °F 93% 30.25 in 10.0 mi NNE 10.4 mph - N/A   Overcast